Terminal Aerodrome Forecast
Issued by NWS Portland, OR

Home | Current Version | Previous Version | Text Only | Print | Product List | Glossary On
Versions: 1 2 3 4 5 6 7 8 9 10 11 12 13 14 15 16 17 18 19 20 21 22 23 24 25 26 27 28 29 30 31 32 33 34 35 36 37 38 39 40 41 42 43 44 45 46 47 48 49 50
922
FTUS46 KPQR 282322
TAFPDX
TAF
KPDX 282322Z 2900/2924 32005KT P6SM SCT080 BKN250
     FM290200 32006KT P6SM SCT050 BKN080
     FM290700 31004KT P6SM SCT030 OVC050
     FM291300 25005KT P6SM SCT025 OVC040
     FM292000 30010KT P6SM SCT040=

USA.gov is the U.S. government's official web portal to all federal, state and local government web resources and services.